Year,Month,Day,Hour,Minute,Value (Times are PST for windgust in km/hr)
2015,12,06,00,00,3.20
2015,12,06,00,01,3.20
2015,12,06,00,03,4.80
2015,12,06,00,04,4.80
2015,12,06,00,05,4.80
2015,12,06,00,06,3.20
2015,12,06,00,07,3.20
2015,12,06,00,08,4.80
2015,12,06,00,09,6.40
2015,12,06,00,10,6.40
2015,12,06,00,11,3.20
2015,12,06,00,12,3.20
2015,12,06,00,13,3.20
2015,12,06,00,14,3.20
2015,12,06,00,15,3.20
2015,12,06,00,16,1.60
2015,12,06,00,17,3.20
2015,12,06,00,18,3.20
2015,12,06,00,19,6.40
2015,12,06,00,20,4.80
2015,12,06,00,21,4.80
2015,12,06,00,22,6.40
2015,12,06,00,23,6.40
2015,12,06,00,24,6.40
2015,12,06,00,25,6.40
2015,12,06,00,26,8.10
2015,12,06,00,27,9.60
2015,12,06,00,28,8.10
2015,12,06,00,29,6.40
2015,12,06,00,30,9.60
2015,12,06,00,31,8.10
2015,12,06,00,32,4.80
2015,12,06,00,33,9.60
2015,12,06,00,34,6.40
2015,12,06,00,35,3.20
2015,12,06,00,36,3.20
2015,12,06,00,37,1.60
2015,12,06,00,38,3.20
2015,12,06,00,39,4.80
2015,12,06,00,40,3.20
2015,12,06,00,41,4.80
2015,12,06,00,42,4.80
2015,12,06,00,43,3.20
2015,12,06,00,44,3.20
2015,12,06,00,45,3.20
2015,12,06,00,46,1.60
2015,12,06,00,47,3.20
2015,12,06,00,48,3.20
2015,12,06,00,49,4.80
2015,12,06,00,50,3.20
2015,12,06,00,51,1.60
2015,12,06,00,52,1.60
2015,12,06,00,53,3.20
2015,12,06,00,54,4.80
2015,12,06,00,55,1.60
2015,12,06,00,56,3.20
2015,12,06,00,57,3.20
2015,12,06,00,58,1.60
2015,12,06,00,59,1.60
2015,12,06,01,00,4.80
2015,12,06,01,01,4.80
2015,12,06,01,02,3.20
2015,12,06,01,03,4.80
2015,12,06,01,04,6.40
2015,12,06,01,05,3.20
2015,12,06,01,06,4.80
2015,12,06,01,07,6.40
2015,12,06,01,08,8.10
2015,12,06,01,09,8.10
2015,12,06,01,10,6.40
2015,12,06,01,11,8.10
2015,12,06,01,12,8.10
2015,12,06,01,13,8.10
2015,12,06,01,14,6.40
2015,12,06,01,15,6.40
2015,12,06,01,16,9.60
2015,12,06,01,17,8.10
2015,12,06,01,18,6.40
2015,12,06,01,19,4.80
2015,12,06,01,20,6.40
2015,12,06,01,21,8.10
2015,12,06,01,22,4.80
2015,12,06,01,23,6.40
2015,12,06,01,24,1.60
2015,12,06,01,25,3.20
2015,12,06,01,26,4.80
2015,12,06,01,27,6.40
2015,12,06,01,28,4.80
2015,12,06,01,29,6.40
2015,12,06,01,30,4.80
2015,12,06,01,31,8.10
2015,12,06,01,32,6.40
2015,12,06,01,33,6.40
2015,12,06,01,34,4.80
2015,12,06,01,35,3.20
2015,12,06,01,36,3.20
2015,12,06,01,37,3.20
2015,12,06,01,38,3.20
2015,12,06,01,39,6.40
2015,12,06,01,40,6.40
2015,12,06,01,41,6.40
2015,12,06,01,42,6.40
2015,12,06,01,43,3.20
2015,12,06,01,44,1.60
2015,12,06,01,46,1.60
2015,12,06,01,47,3.20
2015,12,06,01,48,6.40
2015,12,06,01,49,4.80
2015,12,06,01,50,4.80
2015,12,06,01,51,6.40
2015,12,06,01,52,4.80
2015,12,06,01,53,3.20
2015,12,06,01,54,4.80
2015,12,06,01,55,3.20
2015,12,06,01,56,3.20
2015,12,06,01,57,1.60
2015,12,06,01,58,3.20
2015,12,06,01,59,3.20
2015,12,06,02,00,3.20
2015,12,06,02,01,1.60
2015,12,06,02,02,1.60
2015,12,06,02,09,1.60
2015,12,06,02,10,3.20
2015,12,06,02,11,4.80
2015,12,06,02,12,4.80
2015,12,06,02,13,3.20
2015,12,06,02,14,1.60
2015,12,06,02,15,1.60
2015,12,06,02,16,1.60
2015,12,06,02,18,1.60
2015,12,06,02,19,1.60
2015,12,06,02,20,1.60
2015,12,06,02,21,1.60
2015,12,06,02,23,4.80
2015,12,06,02,24,4.80
2015,12,06,02,25,4.80
2015,12,06,02,26,4.80
2015,12,06,02,27,4.80
2015,12,06,02,28,4.80
2015,12,06,02,29,3.20
2015,12,06,02,30,4.80
2015,12,06,02,31,4.80
2015,12,06,02,32,1.60
2015,12,06,02,33,3.20
2015,12,06,02,34,4.80
2015,12,06,02,35,4.80
2015,12,06,02,36,6.40
2015,12,06,02,37,6.40
2015,12,06,02,38,3.20
2015,12,06,02,39,1.60
2015,12,06,02,40,1.60
2015,12,06,02,41,4.80
2015,12,06,02,42,4.80
2015,12,06,02,43,3.20
2015,12,06,02,45,1.60
2015,12,06,02,46,3.20
2015,12,06,02,47,3.20
2015,12,06,02,48,4.80
2015,12,06,02,49,4.80
2015,12,06,02,50,4.80
2015,12,06,02,51,3.20
2015,12,06,02,52,3.20
2015,12,06,02,53,3.20
2015,12,06,02,54,1.60
2015,12,06,02,58,1.60
2015,12,06,02,59,3.20
2015,12,06,03,00,3.20
2015,12,06,03,01,1.60
2015,12,06,03,02,1.60
2015,12,06,03,03,1.60
2015,12,06,03,04,1.60
2015,12,06,03,06,1.60
2015,12,06,03,07,3.20
2015,12,06,03,08,3.20
2015,12,06,03,09,3.20
2015,12,06,03,10,3.20
2015,12,06,03,11,3.20
2015,12,06,03,12,3.20
2015,12,06,03,13,3.20
2015,12,06,03,14,3.20
2015,12,06,03,15,1.60
2015,12,06,03,19,3.20
2015,12,06,03,20,4.80
2015,12,06,03,21,4.80
2015,12,06,03,22,3.20
2015,12,06,03,23,4.80
2015,12,06,03,24,4.80
2015,12,06,03,25,3.20
2015,12,06,03,26,4.80
2015,12,06,03,27,4.80
2015,12,06,03,28,4.80
2015,12,06,03,29,6.40
2015,12,06,03,30,3.20
2015,12,06,03,31,3.20
2015,12,06,03,32,1.60
2015,12,06,03,33,3.20
2015,12,06,03,34,4.80
2015,12,06,03,35,4.80
2015,12,06,03,36,4.80
2015,12,06,03,37,4.80
2015,12,06,03,38,4.80
2015,12,06,03,39,8.10
2015,12,06,03,40,6.40
2015,12,06,03,41,4.80
2015,12,06,03,42,3.20
2015,12,06,03,43,6.40
2015,12,06,03,44,4.80
2015,12,06,03,45,3.20
2015,12,06,03,46,1.60
2015,12,06,03,47,4.80
2015,12,06,03,48,6.40
2015,12,06,03,49,3.20
2015,12,06,03,50,3.20
2015,12,06,03,51,4.80
2015,12,06,03,52,3.20
2015,12,06,03,53,4.80
2015,12,06,03,54,4.80
2015,12,06,03,55,6.40
2015,12,06,03,56,4.80
2015,12,06,03,57,6.40
2015,12,06,03,58,8.10
2015,12,06,03,59,8.10
2015,12,06,04,00,4.80
2015,12,06,04,01,6.40
2015,12,06,04,02,4.80
2015,12,06,04,03,4.80
2015,12,06,04,04,4.80
2015,12,06,04,05,4.80
2015,12,06,04,06,3.20
2015,12,06,04,07,3.20
2015,12,06,04,08,3.20
2015,12,06,04,09,6.40
2015,12,06,04,10,6.40
2015,12,06,04,11,4.80
2015,12,06,04,12,6.40
2015,12,06,04,13,4.80
2015,12,06,04,14,3.20
2015,12,06,04,15,4.80
2015,12,06,04,16,3.20
2015,12,06,04,17,4.80
2015,12,06,04,18,3.20
2015,12,06,04,19,1.60
2015,12,06,04,20,1.60
2015,12,06,04,21,1.60
2015,12,06,04,22,3.20
2015,12,06,04,23,3.20
2015,12,06,04,24,4.80
2015,12,06,04,25,3.20
2015,12,06,04,26,4.80
2015,12,06,04,27,1.60
2015,12,06,04,28,1.60
2015,12,06,04,30,3.20
2015,12,06,04,31,3.20
2015,12,06,04,32,3.20
2015,12,06,04,33,3.20
2015,12,06,04,34,4.80
2015,12,06,04,35,4.80
2015,12,06,04,36,4.80
2015,12,06,04,37,4.80
2015,12,06,04,38,3.20
2015,12,06,04,39,1.60
2015,12,06,04,40,3.20
2015,12,06,04,41,3.20
2015,12,06,04,42,1.60
2015,12,06,04,43,4.80
2015,12,06,04,44,6.40
2015,12,06,04,45,4.80
2015,12,06,04,46,4.80
2015,12,06,04,47,4.80
2015,12,06,04,48,3.20
2015,12,06,04,49,3.20
2015,12,06,04,50,4.80
2015,12,06,04,51,3.20
2015,12,06,04,52,4.80
2015,12,06,04,53,3.20
2015,12,06,04,54,3.20
2015,12,06,04,55,1.60
2015,12,06,04,57,1.60
2015,12,06,04,58,1.60
2015,12,06,04,59,1.60
2015,12,06,05,00,3.20
2015,12,06,05,01,3.20
2015,12,06,05,02,3.20
2015,12,06,05,03,3.20
2015,12,06,05,04,3.20
2015,12,06,05,05,3.20
2015,12,06,05,07,1.60
2015,12,06,05,08,1.60
2015,12,06,05,09,3.20
2015,12,06,05,10,3.20
2015,12,06,05,11,3.20
2015,12,06,05,12,1.60
2015,12,06,05,13,1.60
2015,12,06,05,14,1.60
2015,12,06,05,15,3.20
2015,12,06,05,16,3.20
2015,12,06,05,17,4.80
2015,12,06,05,18,3.20
2015,12,06,05,19,6.40
2015,12,06,05,20,1.60
2015,12,06,05,21,1.60
2015,12,06,05,23,1.60
2015,12,06,05,24,1.60
2015,12,06,05,25,3.20
2015,12,06,05,26,4.80
2015,12,06,05,27,3.20
2015,12,06,05,28,4.80
2015,12,06,05,29,4.80
2015,12,06,05,30,3.20
2015,12,06,05,31,3.20
2015,12,06,05,32,3.20
2015,12,06,05,33,3.20
2015,12,06,05,34,3.20
2015,12,06,05,35,4.80
2015,12,06,05,36,4.80
2015,12,06,05,37,3.20
2015,12,06,05,38,4.80
2015,12,06,05,39,4.80
2015,12,06,05,40,4.80
2015,12,06,05,41,4.80
2015,12,06,05,42,3.20
2015,12,06,05,43,3.20
2015,12,06,05,44,4.80
2015,12,06,05,45,4.80
2015,12,06,05,46,6.40
2015,12,06,05,47,8.10
2015,12,06,05,48,6.40
2015,12,06,05,49,6.40
2015,12,06,05,50,6.40
2015,12,06,05,51,4.80
2015,12,06,05,52,4.80
2015,12,06,05,53,4.80
2015,12,06,05,54,4.80
2015,12,06,05,55,4.80
2015,12,06,05,56,4.80
2015,12,06,05,57,3.20
2015,12,06,05,58,4.80
2015,12,06,05,59,4.80
2015,12,06,06,00,4.80
2015,12,06,06,01,4.80
2015,12,06,06,02,4.80
2015,12,06,06,03,4.80
2015,12,06,06,04,4.80
2015,12,06,06,05,4.80
2015,12,06,06,06,3.20
2015,12,06,06,07,4.80
2015,12,06,06,08,3.20
2015,12,06,06,09,3.20
2015,12,06,06,10,4.80
2015,12,06,06,11,4.80
2015,12,06,06,12,3.20
2015,12,06,06,13,6.40
2015,12,06,06,14,6.40
2015,12,06,06,15,6.40
2015,12,06,06,16,4.80
2015,12,06,06,17,3.20
2015,12,06,06,18,3.20
2015,12,06,06,19,3.20
2015,12,06,06,20,4.80
2015,12,06,06,21,6.40
2015,12,06,06,22,4.80
2015,12,06,06,23,6.40
2015,12,06,06,24,4.80
2015,12,06,06,25,4.80
2015,12,06,06,26,4.80
2015,12,06,06,27,3.20
2015,12,06,06,29,1.60
2015,12,06,06,30,3.20
2015,12,06,06,31,3.20
2015,12,06,06,32,3.20
2015,12,06,06,33,4.80
2015,12,06,06,34,4.80
2015,12,06,06,35,3.20
2015,12,06,06,36,4.80
2015,12,06,06,37,4.80
2015,12,06,06,38,6.40
2015,12,06,06,39,4.80
2015,12,06,06,40,4.80
2015,12,06,06,41,3.20
2015,12,06,06,42,3.20
2015,12,06,06,43,4.80
2015,12,06,06,44,3.20
2015,12,06,06,45,4.80
2015,12,06,06,46,4.80
2015,12,06,06,47,3.20
2015,12,06,06,48,6.40
2015,12,06,06,49,4.80
2015,12,06,06,50,1.60
2015,12,06,06,51,1.60
2015,12,06,06,52,1.60
2015,12,06,06,53,4.80
2015,12,06,06,54,4.80
2015,12,06,06,55,3.20
2015,12,06,06,56,3.20
2015,12,06,06,57,1.60
2015,12,06,07,05,1.60
2015,12,06,07,06,3.20
2015,12,06,07,07,4.80
2015,12,06,07,08,3.20
2015,12,06,07,09,3.20
2015,12,06,07,10,3.20
2015,12,06,07,11,3.20
2015,12,06,07,12,3.20
2015,12,06,07,13,1.60
2015,12,06,07,14,3.20
2015,12,06,07,15,4.80
2015,12,06,07,16,4.80
2015,12,06,07,17,3.20
2015,12,06,07,18,4.80
2015,12,06,07,19,6.40
2015,12,06,07,20,6.40
2015,12,06,07,21,9.60
2015,12,06,07,22,9.60
2015,12,06,07,23,6.40
2015,12,06,07,24,8.10
2015,12,06,07,25,3.20
2015,12,06,07,26,4.80
2015,12,06,07,27,4.80
2015,12,06,07,28,6.40
2015,12,06,07,29,6.40
2015,12,06,07,30,4.80
2015,12,06,07,31,9.60
2015,12,06,07,32,6.40
2015,12,06,07,33,4.80
2015,12,06,07,34,4.80
2015,12,06,07,35,3.20
2015,12,06,07,36,4.80
2015,12,06,07,37,6.40
2015,12,06,07,38,3.20
2015,12,06,07,39,1.60
2015,12,06,07,40,1.60
2015,12,06,07,41,1.60
2015,12,06,07,42,4.80
2015,12,06,07,43,3.20
2015,12,06,07,44,8.10
2015,12,06,07,45,4.80
2015,12,06,07,46,4.80
2015,12,06,07,47,4.80
2015,12,06,07,48,4.80
2015,12,06,07,49,3.20
2015,12,06,07,50,4.80
2015,12,06,07,51,4.80
2015,12,06,07,52,4.80
2015,12,06,07,53,4.80
2015,12,06,07,54,3.20
2015,12,06,07,55,3.20
2015,12,06,07,56,3.20
2015,12,06,07,57,1.60
2015,12,06,07,58,1.60
2015,12,06,07,59,1.60
2015,12,06,08,01,1.60
2015,12,06,08,02,1.60
2015,12,06,08,03,1.60
2015,12,06,08,04,3.20
2015,12,06,08,05,3.20
2015,12,06,08,06,3.20
2015,12,06,08,07,3.20
2015,12,06,08,08,1.60
2015,12,06,08,10,1.60
2015,12,06,08,11,1.60
2015,12,06,08,12,3.20
2015,12,06,08,13,6.40
2015,12,06,08,14,6.40
2015,12,06,08,15,6.40
2015,12,06,08,16,6.40
2015,12,06,08,17,6.40
2015,12,06,08,18,4.80
2015,12,06,08,19,3.20
2015,12,06,08,20,4.80
2015,12,06,08,21,8.10
2015,12,06,08,22,4.80
2015,12,06,08,23,1.60
2015,12,06,08,24,6.40
2015,12,06,08,25,6.40
2015,12,06,08,26,4.80
2015,12,06,08,27,4.80
2015,12,06,08,28,4.80
2015,12,06,08,29,4.80
2015,12,06,08,30,4.80
2015,12,06,08,31,3.20
2015,12,06,08,32,3.20
2015,12,06,08,33,1.60
2015,12,06,08,35,3.20
2015,12,06,08,36,4.80
2015,12,06,08,37,1.60
2015,12,06,08,41,3.20
2015,12,06,08,42,3.20
2015,12,06,08,43,1.60
2015,12,06,08,44,3.20
2015,12,06,08,45,6.40
2015,12,06,08,46,1.60
2015,12,06,08,47,3.20
2015,12,06,08,48,3.20
2015,12,06,08,49,3.20
2015,12,06,08,50,3.20
2015,12,06,08,51,4.80
2015,12,06,08,52,3.20
2015,12,06,08,53,3.20
2015,12,06,08,54,3.20
2015,12,06,08,55,3.20
2015,12,06,08,56,4.80
2015,12,06,08,57,4.80
2015,12,06,08,58,4.80
2015,12,06,08,59,4.80
2015,12,06,09,00,4.80
2015,12,06,09,01,6.40
2015,12,06,09,02,4.80
2015,12,06,09,03,3.20
2015,12,06,09,04,4.80
2015,12,06,09,05,4.80
2015,12,06,09,06,9.60
2015,12,06,09,07,11.30
2015,12,06,09,08,9.60
2015,12,06,09,09,9.60
2015,12,06,09,10,3.20
2015,12,06,09,11,3.20
2015,12,06,09,12,4.80
2015,12,06,09,13,11.30
2015,12,06,09,14,8.10
2015,12,06,09,15,11.30
2015,12,06,09,16,11.30
2015,12,06,09,17,12.90
2015,12,06,09,18,11.30
2015,12,06,09,19,11.30
2015,12,06,09,20,8.10
2015,12,06,09,21,12.90
2015,12,06,09,22,12.90
2015,12,06,09,23,9.60
2015,12,06,09,24,17.70
2015,12,06,09,25,12.90
2015,12,06,09,26,11.30
2015,12,06,09,27,8.10
2015,12,06,09,28,11.30
2015,12,06,09,29,16.10
2015,12,06,09,30,11.30
2015,12,06,09,31,14.50
2015,12,06,09,32,8.10
2015,12,06,09,33,6.40
2015,12,06,09,34,6.40
2015,12,06,09,35,6.40
2015,12,06,09,36,11.30
2015,12,06,09,37,9.60
2015,12,06,09,38,16.10
2015,12,06,09,39,11.30
2015,12,06,09,40,6.40
2015,12,06,09,41,17.70
2015,12,06,09,42,9.60
2015,12,06,09,43,9.60
2015,12,06,09,44,9.60
2015,12,06,09,45,12.90
2015,12,06,09,46,11.30
2015,12,06,09,47,8.10
2015,12,06,09,48,9.60
2015,12,06,09,49,11.30
2015,12,06,09,50,14.50
2015,12,06,09,51,14.50
2015,12,06,09,52,9.60
2015,12,06,09,53,17.70
2015,12,06,09,54,9.60
2015,12,06,09,55,17.70
2015,12,06,09,56,11.30
2015,12,06,09,57,8.10
2015,12,06,09,58,11.30
2015,12,06,09,59,11.30
2015,12,06,10,00,8.10
2015,12,06,10,01,8.10
2015,12,06,10,02,12.90
2015,12,06,10,03,14.50
2015,12,06,10,04,12.90
2015,12,06,10,05,11.30
2015,12,06,10,06,17.70
2015,12,06,10,07,8.10
2015,12,06,10,08,6.40
2015,12,06,10,09,6.40
2015,12,06,10,10,16.10
2015,12,06,10,11,12.90
2015,12,06,10,12,14.50
2015,12,06,10,13,14.50
2015,12,06,10,14,8.10
2015,12,06,10,15,6.40
2015,12,06,10,16,8.10
2015,12,06,10,17,9.60
2015,12,06,10,18,11.30
2015,12,06,10,19,14.50
2015,12,06,10,20,12.90
2015,12,06,10,21,14.50
2015,12,06,10,22,12.90
2015,12,06,10,23,17.70
2015,12,06,10,24,19.30
2015,12,06,10,25,16.10
2015,12,06,10,26,11.30
2015,12,06,10,27,11.30
2015,12,06,10,28,9.60
2015,12,06,10,29,12.90
2015,12,06,10,30,8.10
2015,12,06,10,31,14.50
2015,12,06,10,32,9.60
2015,12,06,10,33,11.30
2015,12,06,10,34,16.10
2015,12,06,10,35,11.30
2015,12,06,10,36,14.50
2015,12,06,10,37,17.70
2015,12,06,10,38,17.70
2015,12,06,10,39,9.60
2015,12,06,10,40,12.90
2015,12,06,10,41,17.70
2015,12,06,10,42,16.10
2015,12,06,10,43,11.30
2015,12,06,10,44,14.50
2015,12,06,10,45,8.10
2015,12,06,10,46,11.30
2015,12,06,10,47,20.90
2015,12,06,10,48,22.50
2015,12,06,10,49,19.30
2015,12,06,10,50,24.20
2015,12,06,10,51,12.90
2015,12,06,10,52,11.30
2015,12,06,10,53,16.10
2015,12,06,10,54,12.90
2015,12,06,10,55,22.50
2015,12,06,10,56,12.90
2015,12,06,10,57,12.90
2015,12,06,10,58,14.50
2015,12,06,10,59,14.50
2015,12,06,11,00,16.10
2015,12,06,11,01,17.70
2015,12,06,11,02,11.30
2015,12,06,11,03,9.60
2015,12,06,11,04,12.90
2015,12,06,11,05,12.90
2015,12,06,11,06,9.60
2015,12,06,11,07,14.50
2015,12,06,11,08,12.90
2015,12,06,11,09,12.90
2015,12,06,11,10,16.10
2015,12,06,11,11,9.60
2015,12,06,11,12,12.90
2015,12,06,11,13,17.70
2015,12,06,11,14,14.50
2015,12,06,11,15,19.30
2015,12,06,11,16,14.50
2015,12,06,11,17,11.30
2015,12,06,11,18,12.90
2015,12,06,11,19,8.10
2015,12,06,11,20,16.10
2015,12,06,11,21,14.50
2015,12,06,11,22,11.30
2015,12,06,11,23,11.30
2015,12,06,11,24,12.90
2015,12,06,11,25,14.50
2015,12,06,11,26,14.50
2015,12,06,11,27,9.60
2015,12,06,11,28,17.70
2015,12,06,11,29,17.70
2015,12,06,11,30,16.10
2015,12,06,11,31,11.30
2015,12,06,11,32,16.10
2015,12,06,11,33,14.50
2015,12,06,11,34,12.90
2015,12,06,11,35,14.50
2015,12,06,11,36,12.90
2015,12,06,11,37,16.10
2015,12,06,11,38,16.10
2015,12,06,11,39,19.30
2015,12,06,11,40,19.30
2015,12,06,11,41,9.60
2015,12,06,11,42,8.10
2015,12,06,11,43,9.60
2015,12,06,11,44,12.90
2015,12,06,11,45,17.70
2015,12,06,11,46,19.30
2015,12,06,11,47,11.30
2015,12,06,11,48,11.30
2015,12,06,11,49,12.90
2015,12,06,11,50,14.50
2015,12,06,11,51,14.50
2015,12,06,11,52,22.50
2015,12,06,11,53,9.60
2015,12,06,11,54,9.60
2015,12,06,11,55,16.10
2015,12,06,11,56,8.10
2015,12,06,11,57,6.40
2015,12,06,11,58,14.50
2015,12,06,11,59,9.60
2015,12,06,12,00,6.40
2015,12,06,12,01,9.60
2015,12,06,12,02,11.30
2015,12,06,12,03,6.40
2015,12,06,12,04,6.40
2015,12,06,12,05,9.60
2015,12,06,12,06,12.90
2015,12,06,12,07,11.30
2015,12,06,12,08,9.60
2015,12,06,12,09,11.30
2015,12,06,12,10,8.10
2015,12,06,12,11,9.60
2015,12,06,12,12,9.60
2015,12,06,12,13,11.30
2015,12,06,12,14,11.30
2015,12,06,12,15,8.10
2015,12,06,12,16,11.30
2015,12,06,12,17,8.10
2015,12,06,12,18,8.10
2015,12,06,12,19,4.80
2015,12,06,12,20,8.10
2015,12,06,12,21,8.10
2015,12,06,12,22,16.10
2015,12,06,12,23,8.10
2015,12,06,12,24,11.30
2015,12,06,12,25,12.90
2015,12,06,12,26,14.50
2015,12,06,12,27,12.90
2015,12,06,12,28,9.60
2015,12,06,12,29,11.30
2015,12,06,12,30,8.10
2015,12,06,12,31,8.10
2015,12,06,12,32,16.10
2015,12,06,12,33,11.30
2015,12,06,12,34,8.10
2015,12,06,12,35,8.10
2015,12,06,12,36,4.80
2015,12,06,12,37,8.10
2015,12,06,12,38,8.10
2015,12,06,12,39,6.40
2015,12,06,12,40,6.40
2015,12,06,12,41,8.10
2015,12,06,12,42,9.60
2015,12,06,12,43,6.40
2015,12,06,12,44,11.30
2015,12,06,12,45,11.30
2015,12,06,12,46,6.40
2015,12,06,12,47,6.40
2015,12,06,12,48,12.90
2015,12,06,12,49,12.90
2015,12,06,12,50,14.50
2015,12,06,12,51,4.80
2015,12,06,12,52,3.20
2015,12,06,12,53,4.80
2015,12,06,12,54,6.40
2015,12,06,12,55,4.80
2015,12,06,12,56,4.80
2015,12,06,12,57,3.20
2015,12,06,12,58,9.60
2015,12,06,12,59,11.30
2015,12,06,13,00,19.30
2015,12,06,13,01,11.30
2015,12,06,13,02,14.50
2015,12,06,13,03,9.60
2015,12,06,13,04,6.40
2015,12,06,13,05,11.30
2015,12,06,13,06,6.40
2015,12,06,13,07,9.60
2015,12,06,13,08,12.90
2015,12,06,13,09,17.70
2015,12,06,13,10,16.10
2015,12,06,13,11,20.90
2015,12,06,13,12,8.10
2015,12,06,13,13,16.10
2015,12,06,13,14,8.10
2015,12,06,13,15,8.10
2015,12,06,13,16,8.10
2015,12,06,13,17,4.80
2015,12,06,13,18,6.40
2015,12,06,13,19,6.40
2015,12,06,13,20,4.80
2015,12,06,13,21,11.30
2015,12,06,13,22,11.30
2015,12,06,13,23,11.30
2015,12,06,13,24,11.30
2015,12,06,13,25,9.60
2015,12,06,13,26,6.40
2015,12,06,13,27,11.30
2015,12,06,13,28,6.40
2015,12,06,13,29,3.20
2015,12,06,13,30,6.40
2015,12,06,13,31,14.50
2015,12,06,13,32,16.10
2015,12,06,13,33,14.50
2015,12,06,13,34,6.40
2015,12,06,13,35,14.50
2015,12,06,13,36,14.50
2015,12,06,13,37,16.10
2015,12,06,13,38,12.90
2015,12,06,13,39,17.70
2015,12,06,13,40,14.50
2015,12,06,13,41,12.90
2015,12,06,13,42,9.60
2015,12,06,13,43,9.60
2015,12,06,13,44,9.60
2015,12,06,13,45,9.60
2015,12,06,13,46,12.90
2015,12,06,13,47,17.70
2015,12,06,13,48,19.30
2015,12,06,13,49,12.90
2015,12,06,13,50,8.10
2015,12,06,13,51,14.50
2015,12,06,13,52,11.30
2015,12,06,13,53,16.10
2015,12,06,13,54,17.70
2015,12,06,13,55,14.50
2015,12,06,13,56,12.90
2015,12,06,13,57,12.90
2015,12,06,13,58,9.60
2015,12,06,13,59,9.60
2015,12,06,14,00,9.60
2015,12,06,14,01,16.10
2015,12,06,14,02,22.50
2015,12,06,14,03,20.90
2015,12,06,14,04,30.60
2015,12,06,14,05,22.50
2015,12,06,14,06,17.70
2015,12,06,14,07,24.20
2015,12,06,14,08,24.20
2015,12,06,14,09,16.10
2015,12,06,14,10,11.30
2015,12,06,14,11,12.90
2015,12,06,14,12,17.70
2015,12,06,14,13,14.50
2015,12,06,14,14,29.00
2015,12,06,14,15,20.90
2015,12,06,14,16,20.90
2015,12,06,14,17,12.90
2015,12,06,14,18,16.10
2015,12,06,14,19,11.30
2015,12,06,14,20,16.10
2015,12,06,14,21,25.70
2015,12,06,14,22,16.10
2015,12,06,14,23,8.10
2015,12,06,14,24,12.90
2015,12,06,14,25,9.60
2015,12,06,14,26,8.10
2015,12,06,14,27,12.90
2015,12,06,14,28,12.90
2015,12,06,14,29,14.50
2015,12,06,14,30,16.10
2015,12,06,14,31,14.50
2015,12,06,14,32,12.90
2015,12,06,14,33,12.90
2015,12,06,14,34,14.50
2015,12,06,14,35,16.10
2015,12,06,14,36,12.90
2015,12,06,14,37,19.30
2015,12,06,14,38,19.30
2015,12,06,14,39,20.90
2015,12,06,14,40,12.90
2015,12,06,14,41,12.90
2015,12,06,14,42,11.30
2015,12,06,14,43,20.90
2015,12,06,14,44,29.00
2015,12,06,14,45,25.70
2015,12,06,14,46,22.50
2015,12,06,14,47,17.70
2015,12,06,14,48,20.90
2015,12,06,14,49,20.90
2015,12,06,14,50,11.30
2015,12,06,14,51,9.60
2015,12,06,14,52,9.60
2015,12,06,14,53,9.60
2015,12,06,14,54,9.60
2015,12,06,14,55,9.60
2015,12,06,14,56,9.60
2015,12,06,14,57,9.60
2015,12,06,14,58,9.60
2015,12,06,14,59,17.70
2015,12,06,15,00,11.30
2015,12,06,15,01,14.50
2015,12,06,15,02,9.60
2015,12,06,15,03,9.60
2015,12,06,15,04,20.90
2015,12,06,15,05,16.10
2015,12,06,15,06,16.10
2015,12,06,15,07,8.10
2015,12,06,15,08,8.10
2015,12,06,15,09,8.10
2015,12,06,15,10,8.10
2015,12,06,15,11,12.90
2015,12,06,15,12,14.50
2015,12,06,15,13,12.90
2015,12,06,15,14,8.10
2015,12,06,15,15,9.60
2015,12,06,15,16,11.30
2015,12,06,15,17,8.10
2015,12,06,15,18,16.10
2015,12,06,15,19,8.10
2015,12,06,15,20,8.10
2015,12,06,15,21,8.10
2015,12,06,15,22,14.50
2015,12,06,15,23,16.10
2015,12,06,15,24,14.50
2015,12,06,15,25,11.30
2015,12,06,15,26,14.50
2015,12,06,15,27,14.50
2015,12,06,15,28,11.30
2015,12,06,15,29,9.60
2015,12,06,15,30,12.90
2015,12,06,15,31,16.10
2015,12,06,15,32,24.20
2015,12,06,15,33,20.90
2015,12,06,15,34,22.50
2015,12,06,15,35,11.30
2015,12,06,15,36,9.60
2015,12,06,15,37,14.50
2015,12,06,15,38,17.70
2015,12,06,15,39,24.20
2015,12,06,15,40,12.90
2015,12,06,15,41,9.60
2015,12,06,15,42,17.70
2015,12,06,15,43,24.20
2015,12,06,15,44,19.30
2015,12,06,15,45,25.70
2015,12,06,15,46,14.50
2015,12,06,15,47,12.90
2015,12,06,15,48,14.50
2015,12,06,15,49,16.10
2015,12,06,15,50,9.60
2015,12,06,15,51,6.40
2015,12,06,15,52,9.60
2015,12,06,15,53,9.60
2015,12,06,15,54,19.30
2015,12,06,15,55,19.30
2015,12,06,15,56,14.50
2015,12,06,15,57,8.10
2015,12,06,15,58,12.90
2015,12,06,15,59,9.60
2015,12,06,16,00,16.10
2015,12,06,16,01,17.70
2015,12,06,16,02,17.70
2015,12,06,16,03,16.10
2015,12,06,16,04,14.50
2015,12,06,16,05,12.90
2015,12,06,16,06,19.30
2015,12,06,16,07,17.70
2015,12,06,16,08,20.90
2015,12,06,16,09,16.10
2015,12,06,16,10,22.50
2015,12,06,16,11,22.50
2015,12,06,16,12,14.50
2015,12,06,16,13,16.10
2015,12,06,16,14,14.50
2015,12,06,16,15,19.30
2015,12,06,16,16,16.10
2015,12,06,16,17,22.50
2015,12,06,16,18,19.30
2015,12,06,16,19,19.30
2015,12,06,16,20,24.20
2015,12,06,16,21,24.20
2015,12,06,16,22,20.90
2015,12,06,16,23,24.20
2015,12,06,16,24,22.50
2015,12,06,16,25,9.60
2015,12,06,16,26,17.70
2015,12,06,16,27,22.50
2015,12,06,16,28,16.10
2015,12,06,16,29,16.10
2015,12,06,16,30,22.50
2015,12,06,16,31,22.50
2015,12,06,16,32,19.30
2015,12,06,16,33,22.50
2015,12,06,16,34,25.70
2015,12,06,16,35,20.90
2015,12,06,16,36,25.70
2015,12,06,16,37,14.50
2015,12,06,16,38,25.70
2015,12,06,16,39,22.50
2015,12,06,16,40,29.00
2015,12,06,16,41,25.70
2015,12,06,16,42,20.90
2015,12,06,16,43,20.90
2015,12,06,16,44,20.90
2015,12,06,16,45,19.30
2015,12,06,16,46,27.40
2015,12,06,16,47,27.40
2015,12,06,16,48,24.20
2015,12,06,16,49,24.20
2015,12,06,16,50,17.70
2015,12,06,16,51,20.90
2015,12,06,16,52,25.70
2015,12,06,16,53,17.70
2015,12,06,16,54,19.30
2015,12,06,16,55,19.30
2015,12,06,16,56,25.70
2015,12,06,16,57,20.90
2015,12,06,16,58,20.90
2015,12,06,16,59,22.50
2015,12,06,17,00,27.40
2015,12,06,17,01,24.20
2015,12,06,17,02,29.00
2015,12,06,17,03,24.20
2015,12,06,17,04,20.90
2015,12,06,17,05,29.00
2015,12,06,17,06,32.20
2015,12,06,17,07,19.30
2015,12,06,17,08,22.50
2015,12,06,17,09,19.30
2015,12,06,17,10,20.90
2015,12,06,17,11,38.60
2015,12,06,17,12,27.40
2015,12,06,17,13,25.70
2015,12,06,17,14,24.20
2015,12,06,17,15,22.50
2015,12,06,17,16,19.30
2015,12,06,17,17,19.30
2015,12,06,17,18,12.90
2015,12,06,17,19,12.90
2015,12,06,17,20,19.30
2015,12,06,17,21,27.40
2015,12,06,17,22,37.00
2015,12,06,17,23,27.40
2015,12,06,17,24,24.20
2015,12,06,17,25,24.20
2015,12,06,17,26,24.20
2015,12,06,17,27,24.20
2015,12,06,17,28,29.00
2015,12,06,17,29,24.20
2015,12,06,17,30,29.00
2015,12,06,17,31,27.40
2015,12,06,17,32,30.60
2015,12,06,17,33,30.60
2015,12,06,17,34,38.60
2015,12,06,17,35,37.00
2015,12,06,17,36,37.00
2015,12,06,17,37,25.70
2015,12,06,17,38,19.30
2015,12,06,17,39,20.90
2015,12,06,17,40,19.30
2015,12,06,17,41,29.00
2015,12,06,17,42,30.60
2015,12,06,17,43,29.00
2015,12,06,17,44,37.00
2015,12,06,17,45,30.60
2015,12,06,17,46,43.50
2015,12,06,17,47,37.00
2015,12,06,17,48,40.20
2015,12,06,17,49,33.80
2015,12,06,17,50,17.70
2015,12,06,17,51,33.80
2015,12,06,17,52,20.90
2015,12,06,17,53,22.50
2015,12,06,17,54,33.80
2015,12,06,17,55,24.20
2015,12,06,17,56,17.70
2015,12,06,17,57,25.70
2015,12,06,17,58,41.80
2015,12,06,17,59,32.20
2015,12,06,18,00,19.30
2015,12,06,18,01,24.20
2015,12,06,18,02,22.50
2015,12,06,18,03,17.70
2015,12,06,18,04,17.70
2015,12,06,18,05,19.30
2015,12,06,18,06,29.00
2015,12,06,18,07,25.70
2015,12,06,18,08,22.50
2015,12,06,18,09,20.90
2015,12,06,18,10,25.70
2015,12,06,18,11,27.40
2015,12,06,18,12,25.70
2015,12,06,18,13,19.30
2015,12,06,18,14,35.40
2015,12,06,18,15,49.90
2015,12,06,18,16,35.40
2015,12,06,18,17,30.60
2015,12,06,18,18,22.50
2015,12,06,18,19,37.00
2015,12,06,18,20,43.50
2015,12,06,18,21,37.00
2015,12,06,18,22,51.50
2015,12,06,18,23,30.60
2015,12,06,18,24,19.30